Howell, MI

2:04 PM EST on December 14, 2017 (GMT -0500)
Livingston County

Weather History for KOZW - June, 2013

Change the Weather History Date:

Saturday, June 29, 2013

  Actual Average Record
Temperature  
Mean Temperature 68 °F -  
Max Temperature 73 °F 80 °F 91 °F (1998)
Min Temperature 63 °F 59 °F 44 °F (2016)
Cooling Degree Days 3    
Growing Degree Days 18 (Base 50)    
Moisture  
Dew Point 61 °F    
Average Humidity 82    
Maximum Humidity 97    
Minimum Humidity 63    
Precipitation  
Precipitation 0.00 in - - ()
Sea Level Pressure  
Sea Level Pressure 29.64 in    
Wind  
Wind Speed 3 mph (NNE)    
Max Wind Speed 10 mph    
Max Gust Speed 16 mph    
Visibility 10 miles    
Events Rain    
Averages and records for this station are not official NWS values.
T = Trace of Precipitation, MM = Missing Value Source: NWS Daily Summary

Daily Weather History Graph

Daily Weather History Graph

Search for Another Location

Airport or City:

Trip Planner

Search our weather history database for the weather conditions in past years. The results will help you decide how hot, cold, wet, or windy it might be!

Date:

Astronomy

Jun. 29, 2013 Rise Set
Actual Time 6:01 AM EDT 9:17 PM EDT
Civil Twilight 5:26 AM EDT 9:52 PM EDT
Nautical Twilight 4:41 AM EDT 10:37 PM EDT
Astronomical Twilight 3:45 AM EDT 11:32 PM EDT
Moon 12:36 AM EDT (6/29) 1:21 PM EDT (6/29)
Length of Visible Light 16h 26m
Length of Day
15h 16m
Waning Gibbous, 56% of the Moon is Illuminated
Jun 29
Waning Gibbous
Jun 30
Last Quarter
Jul 8
New
Jul 15
First Quarter
Jul 22
Full

Hourly Weather History & Observations

Time (EDT) Temp. Dew Point Humidity Pressure Visibility Wind Dir Wind Speed Gust Speed Precip Events Conditions
12:15 AM 64.8 °F 63.7 °F 96% 29.59 in 10.0 mi NW 4.6 mph - N/A   Overcast
12:34 AM 64.8 °F 63.7 °F 96% 29.59 in 10.0 mi Calm Calm - N/A   Overcast
12:55 AM 64.8 °F 63.9 °F 97% 29.58 in 10.0 mi Calm Calm - N/A   Overcast
1:15 AM 64.6 °F 63.7 °F 97% 29.58 in 10.0 mi North 3.5 mph - N/A   Overcast
1:34 AM 64.6 °F 63.7 °F 97% 29.58 in 10.0 mi Calm Calm - N/A   Overcast
1:55 AM 64.8 °F 63.7 °F 96% 29.57 in 10.0 mi Calm Calm - N/A   Overcast
2:15 AM 64.4 °F 63.5 °F 97% 29.57 in 10.0 mi NNE 3.5 mph - N/A   Overcast
2:34 AM 64.4 °F 63.3 °F 96% 29.58 in 10.0 mi North 3.5 mph - N/A   Overcast
2:55 AM 64.4 °F 63.1 °F 96% 29.58 in 10.0 mi Calm Calm - N/A   Overcast
3:15 AM 64.4 °F 63.5 °F 97% 29.58 in 10.0 mi North 3.5 mph - N/A   Overcast
3:35 AM 64.0 °F 63.0 °F 96% 29.57 in 10.0 mi Calm Calm - N/A   Overcast
3:55 AM 63.9 °F 62.8 °F 96% 29.57 in 10.0 mi Calm Calm - N/A   Overcast
4:15 AM 63.9 °F 62.6 °F 96% 29.57 in 10.0 mi Calm Calm - N/A   Overcast
4:35 AM 63.9 °F 62.6 °F 96% 29.58 in 10.0 mi Calm Calm - N/A   Overcast
4:54 AM 64.0 °F 62.8 °F 96% 29.58 in 10.0 mi NNW 3.5 mph - N/A   Overcast
5:15 AM 63.9 °F 62.6 °F 96% 29.58 in 10.0 mi Calm Calm - N/A   Overcast
5:35 AM 63.5 °F 62.2 °F 96% 29.58 in 10.0 mi Calm Calm - N/A   Overcast
5:55 AM 63.3 °F 62.1 °F 96% 29.59 in 10.0 mi Calm Calm - N/A   Mostly Cloudy
6:15 AM 63.5 °F 62.6 °F 97% 29.59 in 10.0 mi Calm Calm - N/A   Overcast
6:34 AM 63.9 °F 63.0 °F 97% 29.60 in 10.0 mi Calm Calm - N/A   Overcast
6:55 AM 64.2 °F 63.0 °F 96% 29.60 in 10.0 mi Calm Calm - N/A   Overcast
7:15 AM 63.9 °F 62.6 °F 96% 29.60 in 7.0 mi North 3.5 mph - N/A   Overcast
7:34 AM 64.0 °F 62.6 °F 95% 29.60 in 7.0 mi Calm Calm - N/A   Overcast
7:55 AM 64.4 °F 62.8 °F 94% 29.60 in 7.0 mi Calm Calm - N/A   Overcast
8:14 AM 64.6 °F 63.0 °F 94% 29.60 in 7.0 mi NE 3.5 mph - N/A   Overcast
8:35 AM 64.8 °F 63.1 °F 94% 29.61 in 5.0 mi Calm Calm - N/A   Overcast
8:55 AM 65.3 °F 63.3 °F 93% 29.61 in 7.0 mi Calm Calm - N/A   Overcast
9:14 AM 66.2 °F 63.5 °F 91% 29.61 in 7.0 mi Calm Calm - N/A   Overcast
9:35 AM 66.6 °F 62.8 °F 88% 29.62 in 10.0 mi North 3.5 mph - N/A   Overcast
9:55 AM 66.7 °F 63.1 °F 88% 29.62 in 10.0 mi Calm Calm - N/A   Overcast
10:14 AM 66.9 °F 63.5 °F 89% 29.62 in 7.0 mi North 3.5 mph - N/A Rain Rain
10:35 AM 66.4 °F 63.9 °F 92% 29.62 in 7.0 mi Calm Calm - N/A Rain Rain
10:55 AM 66.2 °F 63.5 °F 91% 29.63 in 10.0 mi Calm Calm - N/A   Overcast
11:14 AM 67.3 °F 63.0 °F 86% 29.63 in 10.0 mi North 3.5 mph - N/A   Overcast
11:35 AM 67.6 °F 62.2 °F 83% 29.63 in 10.0 mi North 5.8 mph - N/A   Overcast
11:55 AM 68.0 °F 62.1 °F 81% 29.63 in 10.0 mi North 4.6 mph - N/A   Overcast
12:14 PM 68.0 °F 61.7 °F 80% 29.63 in 10.0 mi NNE 5.8 mph - N/A   Overcast
12:35 PM 68.5 °F 61.2 °F 77% 29.64 in 10.0 mi NNE 6.9 mph - N/A   Overcast
12:55 PM 68.7 °F 60.8 °F 76% 29.64 in 10.0 mi NNE 3.5 mph - N/A   Overcast
1:14 PM 69.1 °F 60.6 °F 74% 29.64 in 10.0 mi NNE 4.6 mph - N/A   Overcast
1:35 PM 70.5 °F 60.8 °F 71% 29.64 in 10.0 mi NE 4.6 mph - N/A   Overcast
1:55 PM 70.7 °F 60.8 °F 71% 29.63 in 10.0 mi NNE 6.9 mph - N/A   Overcast
2:15 PM 70.9 °F 59.7 °F 68% 29.64 in 10.0 mi NNE 8.1 mph - N/A   Overcast
2:35 PM 72.0 °F 60.6 °F 67% 29.64 in 10.0 mi North 8.1 mph - N/A   Overcast
2:54 PM 71.2 °F 59.5 °F 66% 29.64 in 10.0 mi North 6.9 mph - N/A   Overcast
3:15 PM 72.3 °F 59.9 °F 65% 29.64 in 10.0 mi North 6.9 mph - N/A   Overcast
3:35 PM 73.0 °F 60.6 °F 65% 29.65 in 10.0 mi North 5.8 mph - N/A   Overcast
3:54 PM 73.0 °F 59.7 °F 63% 29.65 in 10.0 mi North 8.1 mph - N/A   Mostly Cloudy
4:15 PM 72.3 °F 59.4 °F 64% 29.65 in 10.0 mi North 6.9 mph 16.1 mph N/A   Mostly Cloudy
4:35 PM 71.8 °F 60.6 °F 68% 29.66 in 10.0 mi North 6.9 mph - N/A   Mostly Cloudy
4:54 PM 72.7 °F 61.2 °F 67% 29.66 in 10.0 mi North 6.9 mph - N/A   Overcast
5:15 PM 72.3 °F 60.4 °F 66% 29.66 in 10.0 mi North 5.8 mph - N/A   Overcast
5:35 PM 72.1 °F 60.1 °F 66% 29.66 in 10.0 mi NE 10.4 mph - N/A   Overcast
5:54 PM 71.1 °F 59.7 °F 67% 29.67 in 10.0 mi NNE 6.9 mph - N/A   Overcast
6:15 PM 70.7 °F 59.0 °F 66% 29.67 in 10.0 mi NE 8.1 mph - N/A   Overcast
6:35 PM 71.2 °F 59.2 °F 66% 29.68 in 10.0 mi NNE 4.6 mph - N/A   Overcast
6:54 PM 70.2 °F 58.8 °F 67% 29.68 in 10.0 mi NE 5.8 mph - N/A   Mostly Cloudy
7:15 PM 70.7 °F 59.2 °F 67% 29.69 in 10.0 mi NE 8.1 mph - N/A   Mostly Cloudy
7:35 PM 69.6 °F 58.3 °F 67% 29.69 in 10.0 mi NNE 5.8 mph - N/A   Scattered Clouds
7:55 PM 69.1 °F 59.2 °F 71% 29.70 in 10.0 mi NE 4.6 mph - N/A   Scattered Clouds
8:15 PM 68.9 °F 59.2 °F 71% 29.71 in 10.0 mi NE 4.6 mph - N/A   Mostly Cloudy
8:34 PM 68.5 °F 59.0 °F 72% 29.71 in 10.0 mi Calm Calm - N/A   Overcast
8:55 PM 68.4 °F 58.8 °F 71% 29.72 in 10.0 mi NE 4.6 mph - N/A   Overcast
9:15 PM 68.0 °F 58.6 °F 72% 29.72 in 10.0 mi NE 6.9 mph - N/A   Overcast
9:34 PM 67.3 °F 59.0 °F 75% 29.73 in 10.0 mi NE 6.9 mph - N/A   Overcast
9:55 PM 66.6 °F 59.0 °F 77% 29.74 in 10.0 mi NE 5.8 mph - N/A   Mostly Cloudy
10:14 PM 66.2 °F 58.8 °F 77% 29.75 in 10.0 mi NE 4.6 mph - N/A   Mostly Cloudy
10:35 PM 66.2 °F 59.0 °F 78% 29.75 in 10.0 mi Calm Calm - N/A   Scattered Clouds
10:55 PM 65.7 °F 59.0 °F 79% 29.75 in 10.0 mi NE 3.5 mph - N/A   Clear
11:14 PM 65.7 °F 58.6 °F 78% 29.76 in 10.0 mi Calm Calm - N/A   Scattered Clouds
11:35 PM 65.5 °F 58.3 °F 77% 29.76 in 10.0 mi Calm Calm - N/A   Overcast
11:55 PM 65.3 °F 58.3 °F 78% 29.76 in 10.0 mi Calm Calm - N/A   Overcast